Time,TemperatureF,DewpointF,PressureIn,WindDirection,WindDirectionDegrees,WindSpeedMPH,WindSpeedGustMPH,Humidity,HourlyPrecipIn,Conditions,Clouds,dailyrainin,SoftwareType,DateUTC
2013-09-12 00:01:00,77.4,64.2,29.51,North,-999,-999.0,-999.0,64,0.00,,,0.00,meteohub,2013-09-12 05:01:00,
2013-09-12 00:06:00,77.2,64.0,29.51,North,-999,-999.0,-999.0,64,0.00,,,0.00,meteohub,2013-09-12 05:06:00,
2013-09-12 00:11:00,77.2,64.6,29.51,North,-999,-999.0,-999.0,65,0.00,,,0.00,meteohub,2013-09-12 05:11:00,
2013-09-12 00:16:00,77.0,64.4,29.51,North,-999,-999.0,-999.0,65,0.00,,,0.00,meteohub,2013-09-12 05:16:00,
2013-09-12 00:21:00,76.8,64.6,29.51,North,-999,-999.0,-999.0,66,0.00,,,0.00,meteohub,2013-09-12 05:21:00,
2013-09-12 00:26:00,76.6,64.4,29.54,North,-999,-999.0,-999.0,66,0.00,,,0.00,meteohub,2013-09-12 05:26:00,
2013-09-12 00:32:00,76.6,64.4,29.54,North,-999,-999.0,-999.0,66,0.00,,,0.00,meteohub,2013-09-12 05:32:00,
2013-09-12 00:37:00,76.6,64.9,29.54,North,-999,-999.0,-999.0,67,0.00,,,0.00,meteohub,2013-09-12 05:37:00,
2013-09-12 00:42:00,76.5,64.8,29.51,North,-999,-999.0,-999.0,67,0.00,,,0.00,meteohub,2013-09-12 05:42:00,
2013-09-12 00:47:00,76.5,64.8,29.51,North,-999,-999.0,-999.0,67,0.00,,,0.00,meteohub,2013-09-12 05:47:00,
2013-09-12 00:52:00,76.5,64.8,29.51,North,-999,-999.0,-999.0,67,0.00,,,0.00,meteohub,2013-09-12 05:52:00,
2013-09-12 00:57:00,76.5,64.8,29.51,North,-999,-999.0,-999.0,67,0.00,,,0.00,meteohub,2013-09-12 05:57:00,
2013-09-12 01:02:00,76.5,64.8,29.51,North,-999,-999.0,-999.0,67,0.00,,,0.00,meteohub,2013-09-12 06:02:00,
2013-09-12 01:07:00,76.3,64.6,29.51,North,-999,-999.0,-999.0,67,0.00,,,0.00,meteohub,2013-09-12 06:07:00,
2013-09-12 01:12:00,76.3,64.6,29.51,North,-999,-999.0,-999.0,67,0.00,,,0.00,meteohub,2013-09-12 06:12:00,
2013-09-12 01:17:00,76.3,64.0,29.51,North,-999,-999.0,-999.0,66,0.00,,,0.00,meteohub,2013-09-12 06:17:00,
2013-09-12 01:22:00,76.3,64.0,29.51,North,-999,-999.0,-999.0,66,0.00,,,0.00,meteohub,2013-09-12 06:22:00,
2013-09-12 01:27:00,76.1,63.9,29.51,North,-999,-999.0,-999.0,66,0.00,,,0.00,meteohub,2013-09-12 06:27:00,
2013-09-12 01:32:00,76.1,63.9,29.51,North,-999,-999.0,-999.0,66,0.00,,,0.00,meteohub,2013-09-12 06:32:00,
2013-09-12 01:37:00,75.9,64.2,29.51,North,-999,-999.0,-999.0,67,0.00,,,0.00,meteohub,2013-09-12 06:37:00,
2013-09-12 01:42:00,75.7,64.0,29.48,North,-999,-999.0,-999.0,67,0.00,,,0.00,meteohub,2013-09-12 06:42:00,
2013-09-12 01:47:00,75.7,63.5,29.48,North,-999,-999.0,-999.0,66,0.00,,,0.00,meteohub,2013-09-12 06:47:00,
2013-09-12 01:52:00,75.7,63.5,29.48,North,-999,-999.0,-999.0,66,0.00,,,0.00,meteohub,2013-09-12 06:52:00,
2013-09-12 01:57:00,75.7,63.5,29.51,North,-999,-999.0,-999.0,66,0.00,,,0.00,meteohub,2013-09-12 06:57:00,
2013-09-12 02:02:00,75.6,63.3,29.51,North,-999,-999.0,-999.0,66,0.00,,,0.00,meteohub,2013-09-12 07:02:00,
2013-09-12 02:07:00,75.6,63.9,29.51,North,-999,-999.0,-999.0,67,0.00,,,0.00,meteohub,2013-09-12 07:07:00,
2013-09-12 02:12:00,75.6,63.3,29.51,North,-999,-999.0,-999.0,66,0.00,,,0.00,meteohub,2013-09-12 07:12:00,
2013-09-12 02:17:00,75.4,63.3,29.51,North,-999,-999.0,-999.0,66,0.00,,,0.00,meteohub,2013-09-12 07:17:00,
2013-09-12 02:22:00,75.4,63.7,29.51,North,-999,-999.0,-999.0,67,0.00,,,0.00,meteohub,2013-09-12 07:22:00,
2013-09-12 02:27:00,75.2,63.5,29.51,North,-999,-999.0,-999.0,67,0.00,,,0.00,meteohub,2013-09-12 07:27:00,
2013-09-12 02:32:00,75.2,63.5,29.51,North,-999,-999.0,-999.0,67,0.00,,,0.00,meteohub,2013-09-12 07:32:00,
2013-09-12 02:37:00,75.2,63.5,29.51,North,-999,-999.0,-999.0,67,0.00,,,0.00,meteohub,2013-09-12 07:37:00,
2013-09-12 02:42:00,75.0,63.3,29.51,North,-999,-999.0,-999.0,67,0.00,,,0.00,meteohub,2013-09-12 07:42:00,
2013-09-12 02:47:00,75.0,63.3,29.51,North,-999,-999.0,-999.0,67,0.00,,,0.00,meteohub,2013-09-12 07:47:00,
2013-09-12 02:52:00,75.0,63.7,29.51,North,-999,-999.0,-999.0,68,0.00,,,0.00,meteohub,2013-09-12 07:52:00,
2013-09-12 02:57:00,74.8,63.5,29.51,North,-999,-999.0,-999.0,68,0.00,,,0.00,meteohub,2013-09-12 07:57:00,
2013-09-12 03:02:00,74.8,63.5,29.51,North,-999,-999.0,-999.0,68,0.00,,,0.00,meteohub,2013-09-12 08:02:00,
2013-09-12 03:07:00,74.8,63.5,29.51,North,-999,-999.0,-999.0,68,0.00,,,0.00,meteohub,2013-09-12 08:07:00,
2013-09-12 03:12:00,74.7,63.3,29.51,North,-999,-999.0,-999.0,68,0.00,,,0.00,meteohub,2013-09-12 08:12:00,
2013-09-12 03:17:00,74.7,63.3,29.51,North,-999,-999.0,-999.0,68,0.00,,,0.00,meteohub,2013-09-12 08:17:00,
2013-09-12 03:22:00,74.7,63.3,29.51,North,-999,-999.0,-999.0,68,0.00,,,0.00,meteohub,2013-09-12 08:22:00,
2013-09-12 03:27:00,74.5,63.1,29.51,North,-999,-999.0,-999.0,68,0.00,,,0.00,meteohub,2013-09-12 08:27:00,
2013-09-12 03:32:00,74.5,63.7,29.51,North,-999,-999.0,-999.0,69,0.00,,,0.00,meteohub,2013-09-12 08:32:00,
2013-09-12 03:37:00,74.3,63.5,29.51,North,-999,-999.0,-999.0,69,0.00,,,0.00,meteohub,2013-09-12 08:37:00,
2013-09-12 03:42:00,74.3,63.5,29.51,North,-999,-999.0,-999.0,69,0.00,,,0.00,meteohub,2013-09-12 08:42:00,
2013-09-12 03:47:00,74.3,63.5,29.51,North,-999,-999.0,-999.0,69,0.00,,,0.00,meteohub,2013-09-12 08:47:00,
2013-09-12 03:52:00,74.3,63.5,29.51,North,-999,-999.0,-999.0,69,0.00,,,0.00,meteohub,2013-09-12 08:52:00,
2013-09-12 03:57:00,74.1,63.3,29.51,North,-999,-999.0,-999.0,69,0.00,,,0.00,meteohub,2013-09-12 08:57:00,
2013-09-12 04:02:00,74.1,63.7,29.51,North,-999,-999.0,-999.0,70,0.00,,,0.00,meteohub,2013-09-12 09:02:00,
2013-09-12 04:07:00,74.3,63.9,29.51,North,-999,-999.0,-999.0,70,0.00,,,0.00,meteohub,2013-09-12 09:07:00,
2013-09-12 04:12:00,74.3,63.9,29.51,North,-999,-999.0,-999.0,70,0.00,,,0.00,meteohub,2013-09-12 09:12:00,
2013-09-12 04:17:00,74.3,63.9,29.51,North,-999,-999.0,-999.0,70,0.00,,,0.00,meteohub,2013-09-12 09:17:00,
2013-09-12 04:22:00,74.3,63.9,29.51,North,-999,-999.0,-999.0,70,0.00,,,0.00,meteohub,2013-09-12 09:22:00,
2013-09-12 04:27:00,74.3,63.9,29.51,North,-999,-999.0,-999.0,70,0.00,,,0.00,meteohub,2013-09-12 09:27:00,
2013-09-12 04:32:00,74.3,63.9,29.51,North,-999,-999.0,-999.0,70,0.00,,,0.00,meteohub,2013-09-12 09:32:00,
2013-09-12 04:37:00,74.3,63.5,29.51,North,-999,-999.0,-999.0,69,0.00,,,0.00,meteohub,2013-09-12 09:37:00,
2013-09-12 04:42:00,74.3,63.5,29.51,North,-999,-999.0,-999.0,69,0.00,,,0.00,meteohub,2013-09-12 09:42:00,
2013-09-12 04:47:00,74.3,63.5,29.51,North,-999,-999.0,-999.0,69,0.00,,,0.00,meteohub,2013-09-12 09:47:00,
2013-09-12 04:52:00,74.1,63.3,29.51,North,-999,-999.0,-999.0,69,0.00,,,0.00,meteohub,2013-09-12 09:52:00,
2013-09-12 04:57:00,73.9,63.5,29.51,North,-999,-999.0,-999.0,70,0.00,,,0.00,meteohub,2013-09-12 09:57:00,
2013-09-12 05:02:00,73.8,63.3,29.51,North,-999,-999.0,-999.0,70,0.00,,,0.00,meteohub,2013-09-12 10:02:00,
2013-09-12 05:07:00,73.6,63.1,29.51,North,-999,-999.0,-999.0,70,0.00,,,0.00,meteohub,2013-09-12 10:07:00,
2013-09-12 05:12:00,73.4,63.0,29.51,North,-999,-999.0,-999.0,70,0.00,,,0.00,meteohub,2013-09-12 10:12:00,
2013-09-12 05:17:00,73.4,63.0,29.51,North,-999,-999.0,-999.0,70,0.00,,,0.00,meteohub,2013-09-12 10:17:00,
2013-09-12 05:22:00,73.2,63.3,29.51,North,-999,-999.0,-999.0,71,0.00,,,0.00,meteohub,2013-09-12 10:22:00,
2013-09-12 05:27:00,73.2,63.3,29.51,North,-999,-999.0,-999.0,71,0.00,,,0.00,meteohub,2013-09-12 10:27:00,
2013-09-12 05:32:00,73.2,63.7,29.51,North,-999,-999.0,-999.0,72,0.00,,,0.00,meteohub,2013-09-12 10:32:00,
2013-09-12 05:37:00,72.9,63.0,29.51,North,-999,-999.0,-999.0,71,0.00,,,0.00,meteohub,2013-09-12 10:37:00,
2013-09-12 05:42:00,72.9,63.3,29.51,North,-999,-999.0,-999.0,72,0.00,,,0.00,meteohub,2013-09-12 10:42:00,
2013-09-12 05:47:00,72.9,63.3,29.51,North,-999,-999.0,-999.0,72,0.00,,,0.00,meteohub,2013-09-12 10:47:00,
2013-09-12 05:52:00,72.7,63.1,29.51,North,-999,-999.0,-999.0,72,0.00,,,0.00,meteohub,2013-09-12 10:52:00,
2013-09-12 05:57:00,72.7,63.1,29.51,North,-999,-999.0,-999.0,72,0.00,,,0.00,meteohub,2013-09-12 10:57:00,
2013-09-12 06:02:00,72.7,63.1,29.51,North,-999,-999.0,-999.0,72,0.00,,,0.00,meteohub,2013-09-12 11:02:00,
2013-09-12 06:07:00,72.7,63.1,29.51,North,-999,-999.0,-999.0,72,0.00,,,0.00,meteohub,2013-09-12 11:07:00,
2013-09-12 06:12:00,72.7,63.1,29.51,North,-999,-999.0,-999.0,72,0.00,,,0.00,meteohub,2013-09-12 11:12:00,
2013-09-12 06:17:00,72.7,63.1,29.51,North,-999,-999.0,-999.0,72,0.00,,,0.00,meteohub,2013-09-12 11:17:00,
2013-09-12 06:23:00,72.7,63.1,29.51,North,-999,-999.0,-999.0,72,0.00,,,0.00,meteohub,2013-09-12 11:23:00,
2013-09-12 06:28:00,72.7,63.5,29.51,North,-999,-999.0,-999.0,73,0.00,,,0.00,meteohub,2013-09-12 11:28:00,
2013-09-12 06:33:00,72.7,63.1,29.51,North,-999,-999.0,-999.0,72,0.00,,,0.00,meteohub,2013-09-12 11:33:00,
2013-09-12 06:38:00,72.7,63.5,29.51,North,-999,-999.0,-999.0,73,0.00,,,0.00,meteohub,2013-09-12 11:38:00,
2013-09-12 06:43:00,72.9,63.3,29.51,North,-999,-999.0,-999.0,72,0.00,,,0.00,meteohub,2013-09-12 11:43:00,
2013-09-12 06:48:00,72.9,63.3,29.51,North,-999,-999.0,-999.0,72,0.00,,,0.00,meteohub,2013-09-12 11:48:00,
2013-09-12 06:53:00,73.0,63.5,29.51,North,-999,-999.0,-999.0,72,0.00,,,0.00,meteohub,2013-09-12 11:53:00,
2013-09-12 06:58:00,73.2,63.3,29.51,North,-999,-999.0,-999.0,71,0.00,,,0.00,meteohub,2013-09-12 11:58:00,
2013-09-12 07:03:00,73.2,63.3,29.51,North,-999,-999.0,-999.0,71,0.00,,,0.00,meteohub,2013-09-12 12:03:00,
2013-09-12 07:08:00,73.4,63.5,29.54,North,-999,-999.0,-999.0,71,0.00,,,0.00,meteohub,2013-09-12 12:08:00,
2013-09-12 07:13:00,73.6,63.7,29.54,North,-999,-999.0,-999.0,71,0.00,,,0.00,meteohub,2013-09-12 12:13:00,
2013-09-12 07:18:00,73.6,64.0,29.54,North,-999,-999.0,-999.0,72,0.00,,,0.00,meteohub,2013-09-12 12:18:00,
2013-09-12 07:23:00,73.6,63.7,29.57,North,-999,-999.0,-999.0,71,0.00,,,0.00,meteohub,2013-09-12 12:23:00,
2013-09-12 07:28:00,73.4,63.9,29.57,North,-999,-999.0,-999.0,72,0.00,,,0.00,meteohub,2013-09-12 12:28:00,
2013-09-12 07:33:00,73.2,64.4,29.57,North,-999,-999.0,-999.0,74,0.00,,,0.00,meteohub,2013-09-12 12:33:00,
2013-09-12 07:39:00,72.7,64.8,29.54,North,-999,-999.0,-999.0,76,0.00,,,0.00,meteohub,2013-09-12 12:39:00,
2013-09-12 07:44:00,72.1,64.9,29.54,North,-999,-999.0,-999.0,78,0.00,,,0.00,meteohub,2013-09-12 12:44:00,
2013-09-12 07:49:00,71.8,64.9,29.54,North,-999,-999.0,-999.0,79,0.08,,,0.08,meteohub,2013-09-12 12:49:00,
2013-09-12 07:54:00,71.6,65.1,29.57,North,-999,-999.0,-999.0,80,0.08,,,0.08,meteohub,2013-09-12 12:54:00,
2013-09-12 07:59:00,71.8,65.3,29.57,North,-999,-999.0,-999.0,80,0.08,,,0.08,meteohub,2013-09-12 12:59:00,
2013-09-12 08:04:00,72.0,66.2,29.57,North,-999,-999.0,-999.0,82,0.08,,,0.08,meteohub,2013-09-12 13:04:00,
2013-09-12 08:09:00,72.0,65.8,29.57,North,-999,-999.0,-999.0,81,0.08,,,0.08,meteohub,2013-09-12 13:09:00,
2013-09-12 08:14:00,72.1,66.0,29.57,North,-999,-999.0,-999.0,81,0.08,,,0.08,meteohub,2013-09-12 13:14:00,
2013-09-12 08:19:00,72.1,66.0,29.57,North,-999,-999.0,-999.0,81,0.08,,,0.08,meteohub,2013-09-12 13:19:00,
2013-09-12 08:24:00,72.5,66.4,29.57,North,-999,-999.0,-999.0,81,0.08,,,0.08,meteohub,2013-09-12 13:24:00,
2013-09-12 08:29:00,72.9,66.7,29.57,North,-999,-999.0,-999.0,81,0.08,,,0.08,meteohub,2013-09-12 13:29:00,
2013-09-12 08:34:00,73.2,67.5,29.57,North,-999,-999.0,-999.0,82,0.08,,,0.08,meteohub,2013-09-12 13:34:00,
2013-09-12 08:39:00,73.4,67.3,29.57,North,-999,-999.0,-999.0,81,0.08,,,0.08,meteohub,2013-09-12 13:39:00,
2013-09-12 08:44:00,73.6,67.1,29.57,North,-999,-999.0,-999.0,80,0.04,,,0.08,meteohub,2013-09-12 13:44:00,
2013-09-12 08:50:00,73.8,66.9,29.57,North,-999,-999.0,-999.0,79,0.00,,,0.08,meteohub,2013-09-12 13:50:00,
2013-09-12 08:55:00,73.9,67.1,29.57,North,-999,-999.0,-999.0,79,0.00,,,0.08,meteohub,2013-09-12 13:55:00,
2013-09-12 09:00:00,74.1,66.4,29.57,North,-999,-999.0,-999.0,77,0.00,,,0.08,meteohub,2013-09-12 14:00:00,
2013-09-12 09:05:00,74.3,66.2,29.57,North,-999,-999.0,-999.0,76,0.00,,,0.08,meteohub,2013-09-12 14:05:00,
2013-09-12 09:10:00,74.7,65.5,29.57,North,-999,-999.0,-999.0,73,0.00,,,0.08,meteohub,2013-09-12 14:10:00,
2013-09-12 09:15:00,74.8,64.4,29.57,North,-999,-999.0,-999.0,70,0.00,,,0.08,meteohub,2013-09-12 14:15:00,
2013-09-12 09:20:00,74.7,63.9,29.57,North,-999,-999.0,-999.0,69,0.00,,,0.08,meteohub,2013-09-12 14:20:00,
2013-09-12 09:25:00,74.8,64.4,29.54,North,-999,-999.0,-999.0,70,0.00,,,0.08,meteohub,2013-09-12 14:25:00,
2013-09-12 09:30:00,75.2,64.4,29.54,North,-999,-999.0,-999.0,69,0.00,,,0.08,meteohub,2013-09-12 14:30:00,
2013-09-12 09:35:00,75.2,64.4,29.54,North,-999,-999.0,-999.0,69,0.00,,,0.08,meteohub,2013-09-12 14:35:00,
2013-09-12 09:40:00,74.7,63.9,29.57,North,-999,-999.0,-999.0,69,0.00,,,0.08,meteohub,2013-09-12 14:40:00,
2013-09-12 09:45:00,74.8,64.0,29.57,North,-999,-999.0,-999.0,69,0.00,,,0.08,meteohub,2013-09-12 14:45:00,
2013-09-12 09:50:00,74.5,63.1,29.57,North,-999,-999.0,-999.0,68,0.00,,,0.08,meteohub,2013-09-12 14:50:00,
2013-09-12 09:55:00,74.7,63.3,29.57,North,-999,-999.0,-999.0,68,0.00,,,0.08,meteohub,2013-09-12 14:55:00,
2013-09-12 10:01:00,74.7,63.3,29.57,North,-999,-999.0,-999.0,68,0.00,,,0.08,meteohub,2013-09-12 15:01:00,
2013-09-12 10:06:00,74.8,63.1,29.57,North,-999,-999.0,-999.0,67,0.00,,,0.08,meteohub,2013-09-12 15:06:00,
2013-09-12 10:11:00,74.3,61.7,29.57,North,-999,-999.0,-999.0,65,0.00,,,0.08,meteohub,2013-09-12 15:11:00,
2013-09-12 10:16:00,74.1,62.1,29.57,North,-999,-999.0,-999.0,66,0.00,,,0.08,meteohub,2013-09-12 15:16:00,
2013-09-12 10:21:00,74.1,62.1,29.57,North,-999,-999.0,-999.0,66,0.00,,,0.08,meteohub,2013-09-12 15:21:00,
2013-09-12 10:26:00,74.3,62.2,29.57,North,-999,-999.0,-999.0,66,0.00,,,0.08,meteohub,2013-09-12 15:26:00,
2013-09-12 10:31:00,74.3,62.2,29.57,North,-999,-999.0,-999.0,66,0.00,,,0.08,meteohub,2013-09-12 15:31:00,
2013-09-12 10:36:00,74.8,62.8,29.57,North,-999,-999.0,-999.0,66,0.00,,,0.08,meteohub,2013-09-12 15:36:00,
2013-09-12 10:41:00,75.4,62.8,29.54,North,-999,-999.0,-999.0,65,0.00,,,0.08,meteohub,2013-09-12 15:41:00,
2013-09-12 10:46:00,75.7,62.8,29.54,North,-999,-999.0,-999.0,64,0.00,,,0.08,meteohub,2013-09-12 15:46:00,
2013-09-12 10:51:00,76.6,63.5,29.54,North,-999,-999.0,-999.0,64,0.00,,,0.08,meteohub,2013-09-12 15:51:00,
2013-09-12 10:56:00,77.4,62.4,29.57,North,-999,-999.0,-999.0,60,0.00,,,0.08,meteohub,2013-09-12 15:56:00,
2013-09-12 11:01:00,77.4,62.4,29.57,North,-999,-999.0,-999.0,60,0.00,,,0.08,meteohub,2013-09-12 16:01:00,
2013-09-12 11:07:00,77.4,61.3,29.57,North,-999,-999.0,-999.0,58,0.00,,,0.08,meteohub,2013-09-12 16:07:00,
2013-09-12 11:12:00,77.7,60.8,29.57,North,-999,-999.0,-999.0,56,0.00,,,0.08,meteohub,2013-09-12 16:12:00,
2013-09-12 11:17:00,77.9,61.0,29.57,North,-999,-999.0,-999.0,56,0.00,,,0.08,meteohub,2013-09-12 16:17:00,
2013-09-12 11:22:00,78.8,60.8,29.57,North,-999,-999.0,-999.0,54,0.00,,,0.08,meteohub,2013-09-12 16:22:00,
2013-09-12 11:27:00,79.2,61.2,29.57,North,-999,-999.0,-999.0,54,0.00,,,0.08,meteohub,2013-09-12 16:27:00,
2013-09-12 11:32:00,79.5,60.4,29.57,North,-999,-999.0,-999.0,52,0.00,,,0.08,meteohub,2013-09-12 16:32:00,
2013-09-12 11:37:00,80.2,60.4,29.57,North,-999,-999.0,-999.0,51,0.00,,,0.08,meteohub,2013-09-12 16:37:00,
2013-09-12 11:42:00,80.1,57.4,29.54,North,-999,-999.0,-999.0,46,0.00,,,0.08,meteohub,2013-09-12 16:42:00,
2013-09-12 11:47:00,80.6,59.2,29.54,North,-999,-999.0,-999.0,48,0.00,,,0.08,meteohub,2013-09-12 16:47:00,
2013-09-12 11:52:00,81.0,58.8,29.54,North,-999,-999.0,-999.0,47,0.00,,,0.08,meteohub,2013-09-12 16:52:00,
2013-09-12 11:57:00,81.5,59.4,29.51,North,-999,-999.0,-999.0,47,0.00,,,0.08,meteohub,2013-09-12 16:57:00,
2013-09-12 12:02:00,81.1,58.5,29.51,North,-999,-999.0,-999.0,46,0.00,,,0.08,meteohub,2013-09-12 17:02:00,
2013-09-12 12:07:00,80.6,58.5,29.51,North,-999,-999.0,-999.0,47,0.00,,,0.08,meteohub,2013-09-12 17:07:00,
2013-09-12 12:13:00,80.2,58.1,29.51,North,-999,-999.0,-999.0,47,0.00,,,0.08,meteohub,2013-09-12 17:13:00,
2013-09-12 12:18:00,80.2,57.6,29.51,North,-999,-999.0,-999.0,46,0.00,,,0.08,meteohub,2013-09-12 17:18:00,
2013-09-12 12:23:00,80.4,58.3,29.51,North,-999,-999.0,-999.0,47,0.00,,,0.08,meteohub,2013-09-12 17:23:00,
2013-09-12 12:28:00,81.0,55.8,29.51,North,-999,-999.0,-999.0,42,0.00,,,0.08,meteohub,2013-09-12 17:28:00,
2013-09-12 12:33:00,81.3,55.4,29.51,North,-999,-999.0,-999.0,41,0.00,,,0.08,meteohub,2013-09-12 17:33:00,
2013-09-12 12:38:00,81.7,57.7,29.54,North,-999,-999.0,-999.0,44,0.00,,,0.08,meteohub,2013-09-12 17:38:00,
2013-09-12 12:43:00,81.7,55.8,29.54,North,-999,-999.0,-999.0,41,0.00,,,0.08,meteohub,2013-09-12 17:43:00,
2013-09-12 12:48:00,81.3,55.4,29.54,North,-999,-999.0,-999.0,41,0.00,,,0.08,meteohub,2013-09-12 17:48:00,
2013-09-12 12:53:00,81.5,55.6,29.54,North,-999,-999.0,-999.0,41,0.00,,,0.08,meteohub,2013-09-12 17:53:00,
2013-09-12 12:58:00,82.2,55.6,29.54,North,-999,-999.0,-999.0,40,0.00,,,0.08,meteohub,2013-09-12 17:58:00,
2013-09-12 13:03:00,82.2,54.9,29.54,North,-999,-999.0,-999.0,39,0.00,,,0.08,meteohub,2013-09-12 18:03:00,
2013-09-12 13:08:00,81.5,53.4,29.54,North,-999,-999.0,-999.0,38,0.00,,,0.08,meteohub,2013-09-12 18:08:00,
2013-09-12 13:13:00,81.5,54.1,29.54,North,-999,-999.0,-999.0,39,0.00,,,0.08,meteohub,2013-09-12 18:13:00,
2013-09-12 13:18:00,81.3,54.0,29.54,North,-999,-999.0,-999.0,39,0.00,,,0.08,meteohub,2013-09-12 18:18:00,
2013-09-12 13:23:00,80.8,54.9,29.54,North,-999,-999.0,-999.0,41,0.00,,,0.08,meteohub,2013-09-12 18:23:00,
2013-09-12 13:29:00,80.6,54.7,29.54,North,-999,-999.0,-999.0,41,0.00,,,0.08,meteohub,2013-09-12 18:29:00,
2013-09-12 13:34:00,80.8,52.9,29.54,North,-999,-999.0,-999.0,38,0.00,,,0.08,meteohub,2013-09-12 18:34:00,
2013-09-12 13:39:00,80.4,54.0,29.54,North,-999,-999.0,-999.0,40,0.00,,,0.08,meteohub,2013-09-12 18:39:00,
2013-09-12 13:44:00,80.2,53.8,29.54,North,-999,-999.0,-999.0,40,0.00,,,0.08,meteohub,2013-09-12 18:44:00,
2013-09-12 13:49:00,80.1,54.3,29.54,North,-999,-999.0,-999.0,41,0.00,,,0.08,meteohub,2013-09-12 18:49:00,
2013-09-12 13:54:00,79.5,55.0,29.54,North,-999,-999.0,-999.0,43,0.00,,,0.08,meteohub,2013-09-12 18:54:00,
2013-09-12 13:59:00,79.2,54.1,29.54,North,-999,-999.0,-999.0,42,0.00,,,0.08,meteohub,2013-09-12 18:59:00,
2013-09-12 14:04:00,79.2,54.1,29.54,North,-999,-999.0,-999.0,42,0.00,,,0.08,meteohub,2013-09-12 19:04:00,
2013-09-12 14:09:00,79.2,53.4,29.51,North,-999,-999.0,-999.0,41,0.00,,,0.08,meteohub,2013-09-12 19:09:00,
2013-09-12 14:14:00,79.0,53.2,29.51,North,-999,-999.0,-999.0,41,0.00,,,0.08,meteohub,2013-09-12 19:14:00,
2013-09-12 14:19:00,79.2,53.4,29.51,North,-999,-999.0,-999.0,41,0.00,,,0.08,meteohub,2013-09-12 19:19:00,
2013-09-12 14:24:00,79.5,53.8,29.51,North,-999,-999.0,-999.0,41,0.00,,,0.08,meteohub,2013-09-12 19:24:00,
2013-09-12 14:29:00,79.2,50.0,29.51,North,-999,-999.0,-999.0,36,0.00,,,0.08,meteohub,2013-09-12 19:29:00,
2013-09-12 14:34:00,79.3,50.0,29.51,North,-999,-999.0,-999.0,36,0.00,,,0.08,meteohub,2013-09-12 19:34:00,
2013-09-12 14:40:00,79.3,50.0,29.48,North,-999,-999.0,-999.0,36,0.00,,,0.08,meteohub,2013-09-12 19:40:00,
2013-09-12 14:45:00,79.3,50.0,29.48,North,-999,-999.0,-999.0,36,0.00,,,0.08,meteohub,2013-09-12 19:45:00,
2013-09-12 14:50:00,79.0,49.8,29.48,North,-999,-999.0,-999.0,36,0.00,,,0.08,meteohub,2013-09-12 19:50:00,
2013-09-12 14:55:00,78.8,49.6,29.51,North,-999,-999.0,-999.0,36,0.00,,,0.08,meteohub,2013-09-12 19:55:00,
2013-09-12 15:00:00,78.8,48.0,29.51,North,-999,-999.0,-999.0,34,0.00,,,0.08,meteohub,2013-09-12 20:00:00,
2013-09-12 15:05:00,78.6,47.8,29.51,North,-999,-999.0,-999.0,34,0.00,,,0.08,meteohub,2013-09-12 20:05:00,
2013-09-12 15:10:00,79.3,49.3,29.51,North,-999,-999.0,-999.0,35,0.00,,,0.08,meteohub,2013-09-12 20:10:00,
2013-09-12 15:15:00,79.9,49.8,29.51,North,-999,-999.0,-999.0,35,0.00,,,0.08,meteohub,2013-09-12 20:15:00,
2013-09-12 15:20:00,80.4,51.1,29.51,North,-999,-999.0,-999.0,36,0.00,,,0.08,meteohub,2013-09-12 20:20:00,
2013-09-12 15:25:00,80.2,50.2,29.48,North,-999,-999.0,-999.0,35,0.00,,,0.08,meteohub,2013-09-12 20:25:00,
2013-09-12 15:30:00,80.2,50.9,29.48,North,-999,-999.0,-999.0,36,0.00,,,0.08,meteohub,2013-09-12 20:30:00,
2013-09-12 15:35:00,80.6,50.4,29.48,North,-999,-999.0,-999.0,35,0.00,,,0.08,meteohub,2013-09-12 20:35:00,
2013-09-12 15:40:00,80.8,50.5,29.48,North,-999,-999.0,-999.0,35,0.00,,,0.08,meteohub,2013-09-12 20:40:00,
2013-09-12 15:45:00,80.6,48.9,29.48,North,-999,-999.0,-999.0,33,0.00,,,0.08,meteohub,2013-09-12 20:45:00,
2013-09-12 15:51:00,80.4,49.5,29.48,North,-999,-999.0,-999.0,34,0.00,,,0.08,meteohub,2013-09-12 20:51:00,
2013-09-12 15:56:00,80.4,49.5,29.48,North,-999,-999.0,-999.0,34,0.00,,,0.08,meteohub,2013-09-12 20:56:00,
2013-09-12 16:01:00,80.6,48.9,29.48,North,-999,-999.0,-999.0,33,0.00,,,0.08,meteohub,2013-09-12 21:01:00,
2013-09-12 16:06:00,80.8,49.8,29.48,North,-999,-999.0,-999.0,34,0.00,,,0.08,meteohub,2013-09-12 21:06:00,
2013-09-12 16:11:00,80.6,49.6,29.48,North,-999,-999.0,-999.0,34,0.00,,,0.08,meteohub,2013-09-12 21:11:00,
2013-09-12 16:16:00,80.8,49.8,29.48,North,-999,-999.0,-999.0,34,0.00,,,0.08,meteohub,2013-09-12 21:16:00,
2013-09-12 16:21:00,80.8,49.8,29.48,North,-999,-999.0,-999.0,34,0.00,,,0.08,meteohub,2013-09-12 21:21:00,
2013-09-12 16:26:00,81.1,51.6,29.48,North,-999,-999.0,-999.0,36,0.00,,,0.08,meteohub,2013-09-12 21:26:00,
2013-09-12 16:31:00,81.1,50.9,29.48,North,-999,-999.0,-999.0,35,0.00,,,0.08,meteohub,2013-09-12 21:31:00,
2013-09-12 16:36:00,80.8,50.5,29.48,North,-999,-999.0,-999.0,35,0.00,,,0.08,meteohub,2013-09-12 21:36:00,
2013-09-12 16:41:00,81.0,50.0,29.48,North,-999,-999.0,-999.0,34,0.00,,,0.08,meteohub,2013-09-12 21:41:00,
2013-09-12 16:46:00,81.0,51.4,29.48,North,-999,-999.0,-999.0,36,0.00,,,0.08,meteohub,2013-09-12 21:46:00,
2013-09-12 16:51:00,81.0,50.7,29.48,North,-999,-999.0,-999.0,35,0.00,,,0.08,meteohub,2013-09-12 21:51:00,
2013-09-12 16:56:00,81.0,50.7,29.45,North,-999,-999.0,-999.0,35,0.00,,,0.08,meteohub,2013-09-12 21:56:00,
2013-09-12 17:02:00,81.1,50.9,29.45,North,-999,-999.0,-999.0,35,0.00,,,0.08,meteohub,2013-09-12 22:02:00,
2013-09-12 17:07:00,81.1,51.6,29.45,North,-999,-999.0,-999.0,36,0.00,,,0.08,meteohub,2013-09-12 22:07:00,
2013-09-12 17:12:00,81.1,50.9,29.48,North,-999,-999.0,-999.0,35,0.00,,,0.08,meteohub,2013-09-12 22:12:00,
2013-09-12 17:17:00,81.0,50.0,29.48,North,-999,-999.0,-999.0,34,0.00,,,0.08,meteohub,2013-09-12 22:17:00,
2013-09-12 17:22:00,81.0,51.4,29.48,North,-999,-999.0,-999.0,36,0.00,,,0.08,meteohub,2013-09-12 22:22:00,
2013-09-12 17:27:00,80.8,50.5,29.45,North,-999,-999.0,-999.0,35,0.00,,,0.08,meteohub,2013-09-12 22:27:00,
2013-09-12 17:32:00,80.8,49.8,29.45,North,-999,-999.0,-999.0,34,0.00,,,0.08,meteohub,2013-09-12 22:32:00,
2013-09-12 17:37:00,80.8,50.5,29.45,North,-999,-999.0,-999.0,35,0.00,,,0.08,meteohub,2013-09-12 22:37:00,
2013-09-12 17:42:00,80.8,50.5,29.45,North,-999,-999.0,-999.0,35,0.00,,,0.08,meteohub,2013-09-12 22:42:00,
2013-09-12 17:47:00,80.8,49.8,29.45,North,-999,-999.0,-999.0,34,0.00,,,0.08,meteohub,2013-09-12 22:47:00,
2013-09-12 17:52:00,80.6,51.3,29.45,North,-999,-999.0,-999.0,36,0.00,,,0.08,meteohub,2013-09-12 22:52:00,
2013-09-12 17:57:00,80.6,51.3,29.45,North,-999,-999.0,-999.0,36,0.00,,,0.08,meteohub,2013-09-12 22:57:00,
2013-09-12 18:02:00,80.4,51.8,29.45,North,-999,-999.0,-999.0,37,0.00,,,0.08,meteohub,2013-09-12 23:02:00,
2013-09-12 18:07:00,80.4,51.1,29.45,North,-999,-999.0,-999.0,36,0.00,,,0.08,meteohub,2013-09-12 23:07:00,
2013-09-12 18:12:00,80.4,51.8,29.45,North,-999,-999.0,-999.0,37,0.00,,,0.08,meteohub,2013-09-12 23:12:00,
2013-09-12 18:17:00,80.2,51.6,29.45,North,-999,-999.0,-999.0,37,0.00,,,0.08,meteohub,2013-09-12 23:17:00,
2013-09-12 18:22:00,80.1,52.2,29.45,North,-999,-999.0,-999.0,38,0.00,,,0.08,meteohub,2013-09-12 23:22:00,
2013-09-12 18:27:00,79.9,52.0,29.45,North,-999,-999.0,-999.0,38,0.00,,,0.08,meteohub,2013-09-12 23:27:00,
2013-09-12 18:32:00,79.5,51.6,29.45,North,-999,-999.0,-999.0,38,0.00,,,0.08,meteohub,2013-09-12 23:32:00,
2013-09-12 18:38:00,79.3,51.6,29.45,North,-999,-999.0,-999.0,38,0.00,,,0.08,meteohub,2013-09-12 23:38:00,
2013-09-12 18:43:00,79.2,51.4,29.45,North,-999,-999.0,-999.0,38,0.00,,,0.08,meteohub,2013-09-12 23:43:00,
2013-09-12 18:48:00,78.8,51.1,29.45,North,-999,-999.0,-999.0,38,0.00,,,0.08,meteohub,2013-09-12 23:48:00,
2013-09-12 18:53:00,78.6,50.9,29.45,North,-999,-999.0,-999.0,38,0.00,,,0.08,meteohub,2013-09-12 23:53:00,
2013-09-12 18:58:00,78.3,51.3,29.45,North,-999,-999.0,-999.0,39,0.00,,,0.08,meteohub,2013-09-12 23:58:00,
2013-09-12 19:03:00,78.1,51.8,29.45,North,-999,-999.0,-999.0,40,0.00,,,0.08,meteohub,2013-09-13 00:03:00,
2013-09-12 19:08:00,77.9,51.6,29.45,North,-999,-999.0,-999.0,40,0.00,,,0.00,meteohub,2013-09-13 00:08:00,
2013-09-12 19:13:00,77.5,52.0,29.45,North,-999,-999.0,-999.0,41,0.00,,,0.00,meteohub,2013-09-13 00:13:00,
2013-09-12 19:18:00,77.4,51.8,29.45,North,-999,-999.0,-999.0,41,0.00,,,0.00,meteohub,2013-09-13 00:18:00,
2013-09-12 19:23:00,77.0,52.2,29.45,North,-999,-999.0,-999.0,42,0.00,,,0.00,meteohub,2013-09-13 00:23:00,
2013-09-12 19:28:00,76.8,52.7,29.45,North,-999,-999.0,-999.0,43,0.00,,,0.00,meteohub,2013-09-13 00:28:00,
2013-09-12 19:33:00,76.6,52.5,29.45,North,-999,-999.0,-999.0,43,0.00,,,0.00,meteohub,2013-09-13 00:33:00,
2013-09-12 19:38:00,76.5,52.9,29.48,North,-999,-999.0,-999.0,44,0.00,,,0.00,meteohub,2013-09-13 00:38:00,
2013-09-12 19:44:00,76.3,52.7,29.48,North,-999,-999.0,-999.0,44,0.00,,,0.00,meteohub,2013-09-13 00:44:00,
2013-09-12 19:49:00,76.1,53.2,29.48,North,-999,-999.0,-999.0,45,0.00,,,0.00,meteohub,2013-09-13 00:49:00,
2013-09-12 19:54:00,75.9,53.1,29.48,North,-999,-999.0,-999.0,45,0.00,,,0.00,meteohub,2013-09-13 00:54:00,
2013-09-12 19:59:00,75.7,53.4,29.48,North,-999,-999.0,-999.0,46,0.00,,,0.00,meteohub,2013-09-13 00:59:00,
2013-09-12 20:04:00,75.6,54.0,29.48,North,-999,-999.0,-999.0,47,0.00,,,0.00,meteohub,2013-09-13 01:04:00,
2013-09-12 20:09:00,75.4,53.8,29.48,North,-999,-999.0,-999.0,47,0.00,,,0.00,meteohub,2013-09-13 01:09:00,
2013-09-12 20:14:00,75.2,53.1,29.48,North,-999,-999.0,-999.0,46,0.00,,,0.00,meteohub,2013-09-13 01:14:00,
2013-09-12 20:19:00,75.2,53.1,29.48,North,-999,-999.0,-999.0,46,0.00,,,0.00,meteohub,2013-09-13 01:19:00,
2013-09-12 20:24:00,75.0,52.2,29.48,North,-999,-999.0,-999.0,45,0.00,,,0.00,meteohub,2013-09-13 01:24:00,
2013-09-12 20:29:00,75.2,51.3,29.48,North,-999,-999.0,-999.0,43,0.00,,,0.00,meteohub,2013-09-13 01:29:00,
2013-09-12 20:34:00,75.0,50.4,29.48,North,-999,-999.0,-999.0,42,0.00,,,0.00,meteohub,2013-09-13 01:34:00,
2013-09-12 20:39:00,74.8,50.2,29.51,North,-999,-999.0,-999.0,42,0.00,,,0.00,meteohub,2013-09-13 01:39:00,
2013-09-12 20:45:00,74.7,50.0,29.51,North,-999,-999.0,-999.0,42,0.00,,,0.00,meteohub,2013-09-13 01:45:00,
2013-09-12 20:50:00,74.3,49.1,29.51,North,-999,-999.0,-999.0,41,0.00,,,0.00,meteohub,2013-09-13 01:50:00,
2013-09-12 20:55:00,74.1,48.2,29.51,North,-999,-999.0,-999.0,40,0.00,,,0.00,meteohub,2013-09-13 01:55:00,
2013-09-12 21:00:00,73.8,46.6,29.51,North,-999,-999.0,-999.0,38,0.00,,,0.00,meteohub,2013-09-13 02:00:00,
2013-09-12 21:05:00,73.6,46.4,29.51,North,-999,-999.0,-999.0,38,0.00,,,0.00,meteohub,2013-09-13 02:05:00,
2013-09-12 21:10:00,73.4,46.2,29.51,North,-999,-999.0,-999.0,38,0.00,,,0.00,meteohub,2013-09-13 02:10:00,
2013-09-12 21:15:00,73.0,45.3,29.51,North,-999,-999.0,-999.0,37,0.00,,,0.00,meteohub,2013-09-13 02:15:00,
2013-09-12 21:20:00,72.9,45.1,29.51,North,-999,-999.0,-999.0,37,0.00,,,0.00,meteohub,2013-09-13 02:20:00,
2013-09-12 21:25:00,72.3,44.6,29.51,North,-999,-999.0,-999.0,37,0.00,,,0.00,meteohub,2013-09-13 02:25:00,
2013-09-12 21:30:00,72.1,45.1,29.51,North,-999,-999.0,-999.0,38,0.00,,,0.00,meteohub,2013-09-13 02:30:00,
2013-09-12 21:35:00,71.8,44.1,29.51,North,-999,-999.0,-999.0,37,0.00,,,0.00,meteohub,2013-09-13 02:35:00,
2013-09-12 21:40:00,71.8,44.1,29.51,North,-999,-999.0,-999.0,37,0.00,,,0.00,meteohub,2013-09-13 02:40:00,
2013-09-12 21:46:00,71.4,43.9,29.51,North,-999,-999.0,-999.0,37,0.00,,,0.00,meteohub,2013-09-13 02:46:00,
2013-09-12 21:51:00,71.2,44.4,29.51,North,-999,-999.0,-999.0,38,0.00,,,0.00,meteohub,2013-09-13 02:51:00,
2013-09-12 21:56:00,71.1,44.2,29.51,North,-999,-999.0,-999.0,38,0.00,,,0.00,meteohub,2013-09-13 02:56:00,
2013-09-12 22:01:00,70.7,43.9,29.51,North,-999,-999.0,-999.0,38,0.00,,,0.00,meteohub,2013-09-13 03:01:00,
2013-09-12 22:06:00,70.3,43.5,29.51,North,-999,-999.0,-999.0,38,0.00,,,0.00,meteohub,2013-09-13 03:06:00,
2013-09-12 22:11:00,70.3,43.5,29.51,North,-999,-999.0,-999.0,38,0.00,,,0.00,meteohub,2013-09-13 03:11:00,
2013-09-12 22:16:00,70.2,43.3,29.51,North,-999,-999.0,-999.0,38,0.00,,,0.00,meteohub,2013-09-13 03:16:00,
2013-09-12 22:21:00,70.0,43.2,29.51,North,-999,-999.0,-999.0,38,0.00,,,0.00,meteohub,2013-09-13 03:21:00,
2013-09-12 22:26:00,69.8,42.4,29.48,North,-999,-999.0,-999.0,37,0.00,,,0.00,meteohub,2013-09-13 03:26:00,
2013-09-12 22:31:00,69.8,42.4,29.48,North,-999,-999.0,-999.0,37,0.00,,,0.00,meteohub,2013-09-13 03:31:00,
2013-09-12 22:36:00,69.6,42.3,29.48,North,-999,-999.0,-999.0,37,0.00,,,0.00,meteohub,2013-09-13 03:36:00,
2013-09-12 22:41:00,69.3,41.9,29.51,North,-999,-999.0,-999.0,37,0.00,,,0.00,meteohub,2013-09-13 03:41:00,
2013-09-12 22:47:00,69.1,41.7,29.51,North,-999,-999.0,-999.0,37,0.00,,,0.00,meteohub,2013-09-13 03:47:00,
2013-09-12 22:52:00,69.1,41.7,29.51,North,-999,-999.0,-999.0,37,0.00,,,0.00,meteohub,2013-09-13 03:52:00,
2013-09-12 22:57:00,68.9,41.5,29.51,North,-999,-999.0,-999.0,37,0.00,,,0.00,meteohub,2013-09-13 03:57:00,
2013-09-12 23:01:00,68.7,41.4,29.51,North,-999,-999.0,-999.0,37,0.00,,,0.00,meteohub,2013-09-13 04:01:00,
2013-09-12 23:02:00,68.7,41.4,29.51,North,-999,-999.0,-999.0,37,0.00,,,0.00,meteohub,2013-09-13 04:02:00,
2013-09-12 23:03:00,68.5,41.2,29.51,North,-999,-999.0,-999.0,37,0.00,,,0.00,meteohub,2013-09-13 04:03:00,
2013-09-12 23:05:00,68.5,41.2,29.51,North,-999,-999.0,-999.0,37,0.00,,,0.00,meteohub,2013-09-13 04:05:00,
2013-09-12 23:11:00,68.4,41.7,29.51,North,-999,-999.0,-999.0,38,0.00,,,0.00,meteohub,2013-09-13 04:11:00,
2013-09-12 23:16:00,68.4,41.7,29.51,North,-999,-999.0,-999.0,38,0.00,,,0.00,meteohub,2013-09-13 04:16:00,
2013-09-12 23:17:00,68.4,41.7,29.51,North,-999,-999.0,-999.0,38,0.00,,,0.00,meteohub,2013-09-13 04:17:00,
2013-09-12 23:22:00,68.2,41.7,29.51,North,-999,-999.0,-999.0,38,0.00,,,0.00,meteohub,2013-09-13 04:22:00,
2013-09-12 23:27:00,68.0,42.1,29.51,North,-999,-999.0,-999.0,39,0.00,,,0.00,meteohub,2013-09-13 04:27:00,
2013-09-12 23:32:00,68.0,42.1,29.51,North,-999,-999.0,-999.0,39,0.00,,,0.00,meteohub,2013-09-13 04:32:00,
2013-09-12 23:37:00,67.6,42.4,29.51,North,-999,-999.0,-999.0,40,0.00,,,0.00,meteohub,2013-09-13 04:37:00,
2013-09-12 23:43:00,67.5,42.3,29.51,North,-999,-999.0,-999.0,40,0.00,,,0.00,meteohub,2013-09-13 04:43:00,
2013-09-12 23:48:00,67.3,42.1,29.51,North,-999,-999.0,-999.0,40,0.00,,,0.00,meteohub,2013-09-13 04:48:00,
2013-09-12 23:53:00,67.1,42.1,29.54,North,-999,-999.0,-999.0,40,0.00,,,0.00,meteohub,2013-09-13 04:53:00,
2013-09-12 23:58:00,66.7,41.7,29.54,North,-999,-999.0,-999.0,40,0.00,,,0.00,meteohub,2013-09-13 04:58:00,